• In Netherlands
  • List of Countries
  • For 7 days
  • Water Temperature
  • Satellite Maps
  • Weather Map
  • Weather Widgets
  • user-avatar
    Login

    Hourly Weather Antwerp

    Today, 23 July, Sunday

    Time Temperature Precipitation Wind Pressure Humidity
    00:00 +16°C° 0 mm 2 mps 758 mmHg 83%
    01:00 +15°C° 0 mm 2 mps 758 mmHg 84%
    02:00 +15°C° 0 mm 2 mps 758 mmHg 86%
    03:00 +13°C° 0 mm 3 mps 758 mmHg 87%
    04:00 +13°C° 0 mm 4 mps 758 mmHg 86%
    05:00 +14°C° 0 mm 5 mps 758 mmHg 85%
    06:00 +14°C° 0 mm 6 mps 758 mmHg 84%
    07:00 +15°C° 0 mm 6 mps 758 mmHg 80%
    08:00 +16°C° 0 mm 7 mps 758 mmHg 76%
    09:00 +17°C° 0 mm 7 mps 759 mmHg 73%
    10:00 +18°C° 0.2 mm 7 mps 759 mmHg 71%
    11:00 +18°C° 0.2 mm 7 mps 759 mmHg 69%
    12:00 +20°C° 0.2 mm 7 mps 759 mmHg 67%
    13:00 +20°C° 0.3 mm 7 mps 759 mmHg 66%
    14:00 +20°C° 0.3 mm 6 mps 759 mmHg 64%
    15:00 +21°C° 0.3 mm 6 mps 759 mmHg 63%
    16:00 +20°C° 0.2 mm 5 mps 759 mmHg 66%
    17:00 +19°C° 0.2 mm 4 mps 759 mmHg 70%
    18:00 +19°C° 0.2 mm 4 mps 759 mmHg 73%
    19:00 +18°C° 0.2 mm 3 mps 758 mmHg 77%
    20:00 +17°C° 0.2 mm 3 mps 758 mmHg 80%
    21:00 +16°C° 0.2 mm 3 mps 758 mmHg 84%
    22:00 +16°C° 0.6 mm 2 mps 758 mmHg 86%
    23:00 +15°C° 0.6 mm 2 mps 757 mmHg 89%

    Tomorrow, 24 July, Monday

    Time Temperature Precipitation Wind Pressure Humidity
    00:00 +15°C° 0.6 mm 1 mps 757 mmHg 91%
    01:00 +15°C° 1.7 mm 1 mps 756 mmHg 92%
    02:00 +15°C° 1.7 mm 1 mps 755 mmHg 93%
    03:00 +15°C° 1.7 mm 1 mps 755 mmHg 93%
    04:00 +15°C° 0.7 mm 1 mps 755 mmHg 93%
    05:00 +15°C° 0.7 mm 2 mps 754 mmHg 92%
    06:00 +15°C° 0.7 mm 2 mps 754 mmHg 91%
    07:00 +15°C° 0.7 mm 2 mps 754 mmHg 90%
    08:00 +16°C° 0.7 mm 2 mps 755 mmHg 88%
    09:00 +16°C° 0.7 mm 2 mps 755 mmHg 86%
    10:00 +17°C° 0.6 mm 3 mps 755 mmHg 83%
    11:00 +17°C° 0.6 mm 3 mps 755 mmHg 81%
    12:00 +18°C° 0.6 mm 3 mps 755 mmHg 78%
    13:00 +18°C° 0.7 mm 4 mps 755 mmHg 78%
    14:00 +18°C° 0.7 mm 4 mps 755 mmHg 78%
    15:00 +17°C° 0.7 mm 5 mps 756 mmHg 79%
    16:00 +17°C° 1 mm 5 mps 756 mmHg 81%
    17:00 +16°C° 1 mm 5 mps 756 mmHg 84%
    18:00 +16°C° 1 mm 5 mps 756 mmHg 86%
    19:00 +15°C° 1.5 mm 5 mps 756 mmHg 88%
    20:00 +15°C° 1.5 mm 5 mps 756 mmHg 89%
    21:00 +15°C° 1.5 mm 5 mps 756 mmHg 90%
    22:00 +15°C° 1.3 mm 6 mps 756 mmHg 90%
    23:00 +15°C° 1.3 mm 6 mps 756 mmHg 91%

    Day after tomorrow, 25 July, Tuesday

    Time Temperature Precipitation Wind Pressure Humidity
    00:00 +15°C° 1.3 mm 6 mps 756 mmHg 91%
    01:00 +15°C° 1.1 mm 6 mps 756 mmHg 91%
    02:00 +15°C° 1.1 mm 6 mps 755 mmHg 91%
    03:00 +15°C° 1.1 mm 6 mps 755 mmHg 91%
    04:00 +15°C° 0.9 mm 7 mps 755 mmHg 91%
    05:00 +15°C° 0.9 mm 7 mps 755 mmHg 91%
    06:00 +15°C° 0.9 mm 7 mps 755 mmHg 91%
    07:00 +16°C° 0.9 mm 7 mps 755 mmHg 91%
    08:00 +16°C° 0.9 mm 6 mps 756 mmHg 90%
    09:00 +17°C° 0.9 mm 6 mps 756 mmHg 89%
    10:00 +17°C° 0.8 mm 6 mps 756 mmHg 88%
    11:00 +17°C° 0.8 mm 6 mps 756 mmHg 87%
    12:00 +19°C° 0.8 mm 5 mps 756 mmHg 85%
    13:00 +19°C° 0.5 mm 5 mps 756 mmHg 85%
    14:00 +19°C° 0.5 mm 5 mps 757 mmHg 84%
    15:00 +19°C° 0.5 mm 4 mps 757 mmHg 84%
    16:00 +19°C° 0.3 mm 4 mps 757 mmHg 84%
    17:00 +19°C° 0.3 mm 4 mps 757 mmHg 84%
    18:00 +19°C° 0.3 mm 4 mps 757 mmHg 85%
    19:00 +18°C° 0.1 mm 4 mps 758 mmHg 87%
    20:00 +18°C° 0.1 mm 4 mps 758 mmHg 89%
    21:00 +17°C° 0.1 mm 4 mps 758 mmHg 92%
    22:00 +16°C° 0 mm 3 mps 759 mmHg 92%
    23:00 +16°C° 0 mm 3 mps 759 mmHg 93%

    26 July, Wednesday

    Time Temperature Precipitation Wind Pressure Humidity
    00:00 +16°C° 0 mm 3 mps 759 mmHg 94%
    01:00 +14°C° 0 mm 3 mps 759 mmHg 94%
    02:00 +15°C° 0 mm 2 mps 758 mmHg 95%
    03:00 +15°C° 0 mm 2 mps 758 mmHg 95%
    04:00 +15°C° 0 mm 2 mps 759 mmHg 94%
    05:00 +16°C° 0 mm 2 mps 759 mmHg 92%
    06:00 +17°C° 0 mm 2 mps 759 mmHg 91%
    07:00 +18°C° 0 mm 2 mps 759 mmHg 85%
    08:00 +20°C° 0 mm 1 mps 759 mmHg 79%
    09:00 +22°C° 0 mm 1 mps 759 mmHg 73%
    10:00 +23°C° 0 mm 2 mps 759 mmHg 69%
    11:00 +23°C° 0 mm 2 mps 759 mmHg 65%
    12:00 +24°C° 0 mm 3 mps 759 mmHg 61%
    13:00 +24°C° 0 mm 3 mps 759 mmHg 61%
    14:00 +24°C° 0 mm 3 mps 758 mmHg 61%
    15:00 +25°C° 0 mm 3 mps 758 mmHg 61%
    16:00 +24°C° 0 mm 3 mps 759 mmHg 64%
    17:00 +24°C° 0 mm 2 mps 759 mmHg 66%
    18:00 +23°C° 0 mm 2 mps 759 mmHg 68%
    19:00 +21°C° 0 mm 2 mps 759 mmHg 72%
    20:00 +20°C° 0 mm 2 mps 759 mmHg 75%
    21:00 +18°C° 0 mm 2 mps 759 mmHg 78%
    22:00 +18°C° 0.1 mm 2 mps 759 mmHg 80%
    23:00 +18°C° 0.1 mm 2 mps 759 mmHg 81%

    27 July, Thursday

    Time Temperature Precipitation Wind Pressure Humidity
    00:00 +18°C° 0.1 mm 3 mps 759 mmHg 83%
    01:00 +18°C° 0.4 mm 3 mps 759 mmHg 85%
    02:00 +18°C° 0.4 mm 3 mps 759 mmHg 87%
    03:00 +18°C° 0.4 mm 4 mps 759 mmHg 88%
    04:00 +18°C° 0.9 mm 4 mps 759 mmHg 90%
    05:00 +18°C° 0.9 mm 4 mps 759 mmHg 92%
    06:00 +18°C° 0.9 mm 4 mps 759 mmHg 93%
    07:00 +18°C° 0.3 mm 4 mps 759 mmHg 92%
    08:00 +19°C° 0.3 mm 4 mps 759 mmHg 91%
    09:00 +19°C° 0.3 mm 5 mps 759 mmHg 91%
    10:00 +20°C° 0.1 mm 5 mps 759 mmHg 89%
    11:00 +20°C° 0.1 mm 5 mps 759 mmHg 86%
    12:00 +21°C° 0.1 mm 5 mps 759 mmHg 84%
    13:00 +21°C° 0.3 mm 5 mps 758 mmHg 84%
    14:00 +22°C° 0.3 mm 4 mps 758 mmHg 83%
    15:00 +22°C° 0.3 mm 4 mps 758 mmHg 83%
    16:00 +21°C° 0.7 mm 4 mps 758 mmHg 84%
    17:00 +21°C° 0.7 mm 4 mps 758 mmHg 86%
    18:00 +21°C° 0.7 mm 5 mps 758 mmHg 87%
    19:00 +20°C° 0.1 mm 4 mps 758 mmHg 89%
    20:00 +19°C° 0.1 mm 4 mps 758 mmHg 91%
    21:00 +18°C° 0.1 mm 4 mps 758 mmHg 93%
    22:00 +18°C° 0 mm 4 mps 758 mmHg 94%
    23:00 +17°C° 0 mm 4 mps 758 mmHg 94%

    28 July, Friday

    Time Temperature Precipitation Wind Pressure Humidity
    00:00 +17°C° 0 mm 4 mps 758 mmHg 95%
    01:00 +15°C° 0 mm 4 mps 758 mmHg 95%
    02:00 +15°C° 0 mm 4 mps 758 mmHg 94%
    03:00 +15°C° 0 mm 4 mps 758 mmHg 94%
    04:00 +15°C° 0 mm 4 mps 758 mmHg 92%
    05:00 +15°C° 0 mm 4 mps 759 mmHg 91%
    06:00 +15°C° 0 mm 5 mps 759 mmHg 89%
    07:00 +16°C° 0.1 mm 5 mps 759 mmHg 83%
    08:00 +17°C° 0.1 mm 6 mps 759 mmHg 77%
    09:00 +19°C° 0.1 mm 6 mps 760 mmHg 70%
    10:00 +20°C° 0.1 mm 6 mps 760 mmHg 67%
    11:00 +21°C° 0.1 mm 6 mps 760 mmHg 63%
    12:00 +21°C° 0.1 mm 6 mps 761 mmHg 60%
    13:00 +21°C° 0 mm 6 mps 761 mmHg 59%
    14:00 +21°C° 0 mm 6 mps 761 mmHg 59%
    15:00 +21°C° 0 mm 6 mps 761 mmHg 59%
    16:00 +21°C° 0.1 mm 5 mps 761 mmHg 62%
    17:00 +20°C° 0.1 mm 5 mps 762 mmHg 66%
    18:00 +19°C° 0.1 mm 4 mps 762 mmHg 69%
    19:00 +18°C° 0 mm 4 mps 762 mmHg 71%
    20:00 +17°C° 0 mm 4 mps 763 mmHg 73%
    21:00 +15°C° 0 mm 4 mps 763 mmHg 75%
    22:00 +15°C° 0 mm 4 mps 764 mmHg 78%
    23:00 +14°C° 0 mm 4 mps 764 mmHg 81%
    Show more